Regional Weather Roundup
Issued by NWS

Home | Current Version | Previous Version | Graphics & Text | Print | Product List | Glossary On
Versions: 1 2 3 4 5 6 7 8 9 10 11 12 13 14 15 16 17 18 19 20 21 22 23 24 25 26 27 28 29 30 31 32 33 34 35 36 37 38 39 40 41 42 43 44 45 46 47 48 49 50
026
ASUS44 KLIX 221505
RWRLA
LOUISIANA WEATHER ROUNDUP
NATIONAL WEATHER SERVICE NEW ORLEANS LA
900 AM CST SAT NOV 22 2014

NOTE: "FAIR" INDICATES FEW OR NO CLOUDS BELOW 12,000 FEET WITH NO
      SIGNIFICANT WEATHER AND/OR OBSTRUCTIONS TO VISIBILITY.
      SKY/WX - SKY CONDITION AND SIGNIFICANT WEATHER.
      TMP - AIR TEMPERATURE.    DP   - DEWPOINT TEMPERATURE.
      RH  - RELATIVE HUMIDITY.  PRES - PRESSURE.
      HX  - HEAT INDEX.         WCI  - WIND CHILL INDEX.

*  THESE STATIONS ARE NOT NWS OR FAA STATIONS AND ARE NOT UNDER
   NWS QUALITY CONTROL.

LAZ040-048-061>063-065-066-069-221600-
SOUTHEAST LOUISIANA

CITY           SKY/WX    TMP DP  RH WIND       PRES   REMARKS
N.O. AUDUBON   NOT AVBL
N.O. INTL ARPT PTSUNNY   63  54  72 E12       30.20F
N.O. LAKEFRONT MOSUNNY   63  54  72 E13       30.22F
N.O. DOWNTOWN* FAIR      61  52  72 E3        30.22S
SLIDELL        MOSUNNY   61  51  70 E9        30.22F
BATON ROUGE    CLOUDY    60  51  72 E12       30.21S
BOOTHVILLE     MOSUNNY   67  62  84 E8        30.21S
BELLE CHASSE   PTSUNNY   65  56  72 E12       30.21F
BOGALUSA*        N/A     61  49  66 E5        30.26F
NEW ROADS*     FAIR      60  51  72 E10       30.20S
GONZALES*      PTSUNNY   61  55  80 E7        30.20S
HAMMOND*       MOSUNNY   61  50  67 E9        30.24S
HOUMA*         MOSUNNY   63  57  82 NE9       30.19S
PORT FOURCHON* NOT AVBL

$$

LAZ041-044-053-054-221600-
SOUTHWEST LOUISIANA

CITY           SKY/WX    TMP DP  RH WIND       PRES   REMARKS
LAKE CHARLES   CLOUDY    58  54  86 E6        30.15S
LAFAYETTE      CLOUDY    60  53  77 E7        30.17F
PATTERSON      PTSUNNY   61  55  82 E9        30.20S
SALT POINT       N/A     64  56  75 VRB5      30.15
NEW IBERIA     CLOUDY    62  54  74 E10       30.18S
CHENAULT AIRPK MOSUNNY   57  54  88 E8        30.15S

$$

LAZ027-028-221600-
CENTRAL LOUISIANA

CITY           SKY/WX    TMP DP  RH WIND       PRES   REMARKS
FORT POLK      PTSUNNY   59  53  80 SE9G20    30.16R
ALEXANDRIA INT MOSUNNY   59  51  75 SE8       30.16S
ALEXANDRIA     MOSUNNY   59  50  72 E7        30.18S

$$

LAZ001-002-221600-
NORTHWEST LOUISIANA

CITY           SKY/WX    TMP DP  RH WIND       PRES   REMARKS
SHREVEPORT     CLOUDY    60  53  77 SE10      30.14F
BARKSDALE AFB  CLOUDY    59  53  78 SE10      30.15F
DTN SHREVEPORT CLOUDY    59  51  75 SE14G21   30.15F

$$

LAZ014-016-221600-
NORTHEAST LOUISIANA

CITY           SKY/WX    TMP DP  RH WIND       PRES   REMARKS
MONROE         PTSUNNY   60  49  66 VRB5      30.21F
TALLULAH       PTSUNNY   61  46  57 SE13      30.23F

$$




USA.gov is the U.S. government's official web portal to all federal, state and local government web resources and services.